Change the Weather History Date:

Monday, June 4, 2012

  Actual Average Record
Temperature  
Mean Temperature 52 °F -  
Max Temperature 58 °F 68 °F 78 °F (2011)
Min Temperature 45 °F 52 °F 45 °F (2012)
Degree Days  
Heating Degree Days 14    
Growing Degree Days 2 (Base 50)    
Moisture  
Dew Point 43 °F    
Average Humidity 73    
Maximum Humidity 100    
Minimum Humidity 48    
Precipitation  
Precipitation 0.02 in - - ()
Sea Level Pressure  
Sea Level Pressure 29.95 in    
Wind  
Wind Speed 8 mph ()    
Max Wind Speed 13 mph    
Max Gust Speed -    
Visibility 6.3 miles    
Events Rain    
Averages and records for this station are not official NWS values.
T = Trace of Precipitation, MM = Missing Value Source: Averaged Metar Reports

Daily Weather History Graph

Daily Weather History Graph

Search for Another Location

Airport or City:

Trip Planner

Search our weather history database for the weather conditions in past years. The results will help you decide how hot, cold, wet, or windy it might be!

Date:

Astronomy

Jun. 04, 2012 Rise Set
Actual Time 4:48 AM BST 9:12 PM BST
Civil Twilight 4:02 AM BST 9:59 PM BST
Nautical Twilight 2:53 AM BST 11:08 PM BST
Astronomical Twilight 1:32 AM BST 12:27 AM BST
Moon 9:25 PM BST (6/4) 4:42 AM BST (6/4)
Length of Visible Light 17h 56m
Length of Day
16h 24m
Full, 100% of the Moon is Illuminated
Jun 4
Full
Jun 4
Full
Jun 11
Last Quarter
Jun 19
New
Jun 27
First Quarter

Hourly Weather History & Observations

Time (BST) Temp. Windchill Dew Point Humidity Pressure Visibility Wind Dir Wind Speed Gust Speed Precip Events Conditions
12:20 AM 53.6 °F - 51.8 °F 94% 29.74 in - ENE 11.5 mph - N/A Rain Light Rain
12:50 AM 50 °F - 49 °F 96% 29.74 in 1 mi NE 9.2 mph - - Rain Light Rain
12:50 AM 50.0 °F - 50.0 °F 100% 29.74 in 2.2 mi NE 9.2 mph - N/A Rain Light Rain
1:20 AM 50.0 °F - 48.2 °F 94% 29.74 in 1.9 mi NE 8.1 mph - N/A   Heavy Drizzle
1:50 AM 50.0 °F - 48.2 °F 94% 29.74 in - NE 8.1 mph - N/A Rain Rain
2:20 AM 48.2 °F - 46.4 °F 93% 29.74 in 5.0 mi NE 9.2 mph - N/A Rain Light Rain
2:50 AM 48.2 °F - 46.4 °F 93% 29.74 in 4.3 mi NE 10.4 mph - N/A Rain Light Rain
3:20 AM 48.2 °F - 44.6 °F 87% 29.77 in - NE 12.7 mph - N/A Rain Rain
3:50 AM 47 °F - 45 °F 92% 29.78 in 3 mi NNE 10.4 mph - - Rain Light Rain
3:50 AM 46.4 °F 42.4 °F 44.6 °F 93% 29.77 in - NNE 8.1 mph - N/A Rain Light Rain
4:20 AM 46.4 °F 41.9 °F 44.6 °F 93% 29.77 in 4.3 mi NNE 9.2 mph - N/A Rain Light Rain
4:50 AM 46.4 °F 41.1 °F 44.6 °F 93% 29.80 in 5.0 mi NNE 11.5 mph - N/A Rain Light Rain
5:20 AM 46.4 °F 41.5 °F 42.8 °F 87% 29.80 in - NE 10.4 mph - N/A Rain Light Rain
5:50 AM 44.6 °F 40.2 °F 42.8 °F 93% 29.83 in 1.6 mi NNE 8.1 mph - N/A   Drizzle
6:20 AM 46.4 °F 42.4 °F 42.8 °F 87% 29.83 in - NNE 8.1 mph - N/A Rain Light Rain
6:50 AM 45 °F - 44 °F 93% 29.87 in 3 mi NNE 10.4 mph - - Rain Drizzle
6:50 AM 46.4 °F 41.9 °F 42.8 °F 87% 29.86 in 2.8 mi NNE 9.2 mph - N/A Rain Light Rain
7:20 AM 46.4 °F 42.4 °F 42.8 °F 87% 29.86 in 5.6 mi NNE 8.1 mph - N/A Rain Light Rain
7:50 AM 46.4 °F 41.9 °F 42.8 °F 87% 29.89 in 6.2 mi NNE 9.2 mph - N/A   Mostly Cloudy
8:20 AM 46.4 °F 42.4 °F 42.8 °F 87% 29.89 in 6.2 mi NNE 8.1 mph - N/A   Mostly Cloudy
8:50 AM 48.2 °F - 42.8 °F 82% 29.92 in 6.2 mi North 6.9 mph - N/A   Mostly Cloudy
9:20 AM 48.2 °F - 42.8 °F 82% 29.92 in 6.2 mi North 8.1 mph - N/A   Mostly Cloudy
9:50 AM 50 °F - 43 °F 68% 29.94 in 22 mi NNE 10.4 mph - -   Scattered Clouds
9:50 AM 50.0 °F - 42.8 °F 76% 29.95 in 6.2 mi NNE 8.1 mph - N/A   Mostly Cloudy
10:20 AM 51.8 °F - 42.8 °F 71% 29.95 in 6.2 mi North 9.2 mph - N/A   Mostly Cloudy
10:50 AM 51.8 °F - 44.6 °F 76% 29.95 in 6.2 mi NNE 8.1 mph - N/A   Mostly Cloudy
11:20 AM 51.8 °F - 42.8 °F 71% 29.98 in 6.2 mi NNE 8.1 mph - N/A   Mostly Cloudy
11:50 AM 55.4 °F - 44.6 °F 67% 29.98 in 6.2 mi NNE 9.2 mph - N/A   Scattered Clouds
12:20 PM 55.4 °F - 42.8 °F 63% 29.98 in 6.2 mi North 9.2 mph - N/A   Mostly Cloudy
12:50 PM 52 °F - 42 °F 60% 30.01 in 12 mi North 8.1 mph - - Rain Light Rain Showers
12:50 PM 51.8 °F - 42.8 °F 71% 30.01 in 6.2 mi North 6.9 mph - N/A Rain Light Rain Showers
1:20 PM 53.6 °F - 44.6 °F 72% 30.01 in 6.2 mi North 5.8 mph - N/A   Scattered Clouds
1:50 PM 53.6 °F - 42.8 °F 67% 30.01 in 6.2 mi NNW 8.1 mph - N/A Rain Light Rain Showers
2:20 PM 53.6 °F - 42.8 °F 67% 30.01 in 6.2 mi NW 6.9 mph - N/A   Mostly Cloudy
2:50 PM 53.6 °F - 41.0 °F 62% 30.01 in 6.2 mi North 8.1 mph - N/A   Mostly Cloudy
3:20 PM 55.4 °F - 39.2 °F 54% 30.04 in 6.2 mi North 9.2 mph - N/A   Mostly Cloudy
3:50 PM 55 °F - 41 °F 48% 30.04 in 19 mi WNW 8.1 mph - -   Mostly Cloudy
3:50 PM 55.4 °F - 41.0 °F 58% 30.04 in 6.2 mi WNW 8.1 mph - N/A   Partly Cloudy
4:20 PM 57.2 °F - 41.0 °F 55% 30.04 in 6.2 mi North 8.1 mph - N/A   Scattered Clouds
4:50 PM 57.2 °F - 39.2 °F 51% 30.04 in 6.2 mi North 6.9 mph - N/A   Scattered Clouds
5:20 PM 57.2 °F - 39.2 °F 51% 30.04 in 6.2 mi NNW 6.9 mph - N/A   Scattered Clouds
5:50 PM 57.2 °F - 39.2 °F 51% 30.06 in 6.2 mi North 6.9 mph - N/A   Scattered Clouds
6:20 PM 57.2 °F - 39.2 °F 51% 30.06 in 6.2 mi North 6.9 mph - N/A   Scattered Clouds
6:50 PM 56 °F - 42 °F 49% 30.08 in 17 mi NNE 9.2 mph - -   Scattered Clouds
6:50 PM 55.4 °F - 41.0 °F 58% 30.06 in 6.2 mi NNE 8.1 mph - N/A   Scattered Clouds
7:20 PM 55.4 °F - 41.0 °F 58% 30.06 in 6.2 mi ENE 8.1 mph - N/A   Scattered Clouds
7:50 PM 55.4 °F - 41.0 °F 58% 30.06 in 6.2 mi ENE 6.9 mph - N/A   Partly Cloudy
8:20 PM 53.6 °F - 41.0 °F 62% 30.09 in 6.2 mi NE 4.6 mph - N/A   Partly Cloudy
8:50 PM 53.6 °F - 39.2 °F 58% 30.09 in 6.2 mi NE 3.5 mph - N/A   Partly Cloudy
9:20 PM 51.8 °F - 39.2 °F 62% 30.09 in 6.2 mi East 2.3 mph - N/A   Partly Cloudy
9:50 PM 51 °F - 41 °F 58% 30.11 in 17 mi ENE 3.5 mph - -   Scattered Clouds
9:50 PM 50.0 °F - 39.2 °F 66% 30.09 in - ENE 2.3 mph - N/A   Clear
10:20 PM 50.0 °F - 39.2 °F 66% 30.09 in - ENE 2.3 mph - N/A   Clear
10:50 PM 51.8 °F - 41.0 °F 67% 30.12 in - ENE 2.3 mph - N/A   Clear
11:20 PM 50.0 °F - 41.0 °F 71% 30.12 in - East 2.3 mph - N/A   Clear
11:50 PM 48.2 °F - 41.0 °F 76% 30.12 in - ESE 3.5 mph - N/A   Clear